Tracking 30922 objects as of 2-Jul-2025
HD Live streaming from Space Station
objects crossing your sky now

OV3-3

Track OV3-3 now!
10-day predictions
OV3-3 is classified as:


NORAD ID: 2389
Int'l Code: 1966-070A
Perigee: 342.6 km
Apogee: 1,922.6 km
Inclination: 81.3 °
Period: 107.8 minutes
Semi major axis: 7503 km
RCS: 0.7052 m2 (medium)
Launch date: August 4, 1966
Source: United States (US)
Launch site: AIR FORCE WESTERN TEST RANGE (AFWTR)
Your satellite tracking list
Your tracking list is empty




NASA's NSSDC Master Catalog

Two Line Element Set (TLE):
1 02389U 66070A   25182.57304230  .00007747  00000-0  36357-3 0  9995
2 02389  81.3288 277.8688 1052829 340.5048  15.8480 13.35678015552008
Source of the keplerian elements: AFSPC